| time (UTC) | temp F | wind direction | speed MPH | gust MPH | rain 1hr in | rain 24hr in | rain mn in | humidity % | barometer mb |
| 20260504081551 | 56 | 279 | 18.0 | 31.0 | 0.00 | 0.00 | 0.00 | 50 | 1016.6 |
| 20260504050117 | 53 | 265 | 21.0 | 49.0 | 0.00 | 0.00 | 0.00 | 57 | 1014.5 |
| 20260504044548 | 53 | 265 | 25.0 | 40.0 | 0.00 | 0.00 | 0.00 | 58 | 1014.3 |
| 20260504043041 | 53 | 279 | 21.0 | 43.0 | 0.00 | 0.00 | 0.00 | 58 | 1014.3 |
| 20260504041543 | 53 | 280 | 26.0 | 42.0 | 0.00 | 0.00 | 0.00 | 57 | 1014.1 |
| 20260504040104 | 53 | 278 | 25.0 | 44.0 | 0.00 | 0.00 | 0.00 | 56 | 1013.5 |
| 20260504034554 | 53 | 279 | 18.0 | 34.0 | 0.00 | 0.00 | 0.00 | 59 | 1013.8 |
| 20260504033050 | 53 | 261 | 17.0 | 31.0 | 0.00 | 0.00 | 0.00 | 59 | 1013.7 |
| 20260504031605 | 53 | 275 | 28.0 | 46.0 | 0.00 | 0.00 | 0.00 | 59 | 1013.3 |
| 20260504030042 | 53 | 360 | 23.0 | 39.0 | 0.00 | 0.00 | 0.00 | 60 | 1013.2 |
| 20260504024545 | 52 | 236 | 22.0 | 45.0 | 0.00 | 0.00 | 0.00 | 59 | 1013.4 |
| 20260504023100 | 53 | 15 | 28.0 | 50.0 | 0.00 | 0.00 | 0.00 | 59 | 1013.0 |
| 20260504021600 | 53 | 280 | 31.0 | 49.0 | 0.00 | 0.00 | 0.00 | 56 | 1013.0 |
| 20260504020048 | 53 | 289 | 28.0 | 45.0 | 0.00 | 0.00 | 0.00 | 55 | 1013.1 |
| 20260504014550 | 53 | 360 | 32.0 | 55.0 | 0.00 | 0.00 | 0.00 | 54 | 1013.0 |
| 20260504013046 | 53 | 360 | 31.0 | 47.0 | 0.00 | 0.00 | 0.00 | 54 | 1012.7 |
| 20260504011559 | 53 | 9 | 33.0 | 58.0 | 0.00 | 0.00 | 0.00 | 56 | 1012.8 |
| 20260504010108 | 53 | 282 | 27.0 | 49.0 | 0.00 | 0.00 | 0.00 | 57 | 1013.1 |
| 20260504004555 | 53 | 278 | 30.0 | 48.0 | 0.00 | 0.00 | 0.00 | 54 | 1013.0 |
| 20260504003050 | 53 | 360 | 30.0 | 52.0 | 0.00 | 0.00 | 0.00 | 56 | 1012.9 |
| 20260504001604 | 53 | 267 | 30.0 | 52.0 | 0.00 | 0.00 | 0.00 | 54 | 1012.7 |
| 20260504000041 | 53 | 360 | 26.0 | 47.0 | 0.00 | 0.00 | 0.00 | 54 | 1012.6 |
| 20260503234600 | 53 | 360 | 30.0 | 57.0 | 0.00 | 0.00 | 0.00 | 53 | 1012.8 |
| 20260503233056 | 53 | 360 | 28.0 | 55.0 | 0.00 | 0.00 | 0.00 | 55 | 1012.7 |
| 20260503231501 | 53 | 281 | 31.0 | 46.0 | 0.00 | 0.00 | 0.00 | 56 | 1012.7 |
| 20260503230048 | 53 | 312 | 32.0 | 53.0 | 0.00 | 0.00 | 0.00 | 56 | 1012.7 |
| 20260503224552 | 53 | 265 | 29.0 | 45.0 | 0.00 | 0.00 | 0.00 | 59 | 1012.7 |
| 20260503223047 | 53 | 360 | 20.0 | 35.0 | 0.00 | 0.00 | 0.00 | 61 | 1012.9 |
| 20260503221557 | 52 | 30 | 19.0 | 37.0 | 0.00 | 0.00 | 0.00 | 63 | 1012.6 |
| 20260503220053 | 52 | 360 | 19.0 | 32.0 | 0.00 | 0.00 | 0.00 | 64 | 1012.6 |
| 20260503214558 | 52 | 267 | 22.0 | 39.0 | 0.00 | 0.00 | 0.00 | 65 | 1012.6 |
| 20260503213120 | 53 | 360 | 26.0 | 44.0 | 0.00 | 0.00 | 0.00 | 64 | 1012.6 |
| 20260503211612 | 53 | 360 | 25.0 | 43.0 | 0.00 | 0.00 | 0.00 | 62 | 1012.2 |
| 20260503210042 | 52 | 243 | 28.0 | 41.0 | 0.00 | 0.00 | 0.00 | 64 | 1012.3 |
| 20260503204621 | 50 | 263 | 24.0 | 39.0 | 0.00 | 0.00 | 0.00 | 65 | 1012.2 |
| 20260503203104 | 50 | 360 | 23.0 | 48.0 | 0.00 | 0.00 | 0.00 | 65 | 1012.4 |
| 20260503201553 | 50 | 13 | 19.0 | 36.0 | 0.00 | 0.00 | 0.00 | 65 | 1012.6 |
| 20260503200002 | 50 | 267 | 32.0 | 46.0 | 0.00 | 0.00 | 0.00 | 66 | 1011.7 |
| 20260503194546 | 50 | 30 | 20.0 | 34.0 | 0.00 | 0.00 | 0.00 | 66 | 1012.2 |
| 20260503193045 | 51 | 246 | 19.0 | 42.0 | 0.00 | 0.00 | 0.00 | 65 | 1012.1 |
| 20260503191606 | 51 | 66 | 23.0 | 44.0 | 0.00 | 0.00 | 0.00 | 65 | 1011.8 |
| 20260503190055 | 51 | 19 | 17.0 | 44.0 | 0.00 | 0.00 | 0.00 | 64 | 1011.8 |
| 20260503184630 | 51 | 13 | 24.0 | 40.0 | 0.00 | 0.00 | 0.00 | 64 | 1011.8 |
| 20260503183059 | 50 | 255 | 20.0 | 41.0 | 0.00 | 0.00 | 0.00 | 65 | 1011.9 |
| 20260503181545 | 50 | 248 | 25.0 | 38.0 | 0.00 | 0.00 | 0.00 | 65 | 1011.4 |
| 20260503180038 | 50 | 277 | 31.0 | 47.0 | 0.00 | 0.00 | 0.00 | 65 | 1010.8 |
| 20260503174552 | 50 | 261 | 25.0 | 40.0 | 0.00 | 0.00 | 0.00 | 65 | 1011.3 |
| 20260503173130 | 50 | 265 | 24.0 | 49.0 | 0.00 | 0.00 | 0.00 | 65 | 1011.1 |
| 20260503171548 | 50 | 312 | 32.0 | 44.0 | 0.00 | 0.00 | 0.00 | 65 | 1010.7 |